Location: Corte Bragagnani
(45.3000°N, 11.1000°E)
Time: 00:50:20
(UTC+00:00)

STARLINK-1270 - Pass Details

Date: 09 April 2020
Orbit: 378 x 381 km, 53.0° (Epoch: 03 June)

Event Time Altitude Azimuth Distance (km) Brightness Sun altitude
Rises 18:16:13 0° 303° (WNW) 2,259 8.5 -4.6°
Reaches altitude 10° 18:18:25 10° 314° (NW) 1,403 6.9 -4.9°
Maximum altitude 18:21:16 31° 20° (NNE) 698 4.2 -5.4°
Drops below altitude 10° 18:24:05 10° 85° (E) 1,396 5.1 -5.9°
Enters shadow 18:24:42 - 89° (E) 1,627 5.4 -6.0°
